Flag for U.S.A. Weather past 2 weeks in Irving, Texas, U.S.A.

Now
85 °F

Scattered clouds.


Feels Like: 88 °F
Forecast: 80 / 98 °F
Wind: 10 mph from South

Location: Dallas / Fort Worth International Airport

Current Time: Aug 4, 2015 at 9:18:10 AM

Latest Report: Aug 4, 2015 at 8:53 AM


Visibility: 10 mi

Pressure: 29.92 "Hg

Humidity: 55%

Dew point: 67 °F

Location of IrvingLocation

Historic Weather in Irving — Graph

°F

Irving temperature yesterday

Maximum temperature yesterday: 98 °F (at 2:53 PM)
Minimum temperature yesterday: 79 °F (at 2:53 AM)
Average temperature yesterday: 89 °F

Past Weeks' High & Low Weather Summary

 TemperatureHumidityPressure
High102 °F (Jul 30, 3:53 PM)76% (Jul 23, 6:53 AM)30.07 "Hg (Jul 23, 6:53 AM)
Low77 °F (Aug 2, 6:53 AM)22% (Aug 1, 5:53 PM)29.76 "Hg (Jul 21, 6:53 PM)
Average89 °F46%29.90 "Hg
* Reported Jul 20 7:53 AM — Aug 4 7:53 AM, Irving, Weather by CustomWeather, © 2015

Note: Actual official high and low records may vary slightly from our data, if they occured in-between our weather recording intervals... More about our weather records

Advertising

Irving weather history for previous 24 hours

 ConditionsComfort  
Time TempWeatherWind HumidityBarometerVisibility
7:53 AM
Tue, Aug 4
83 °FPartly sunny.10 mph57%29.91 "Hg10 mi
6:53 AM80 °FPartly cloudy.7 mph60%29.90 "Hg10 mi
5:53 AM80 °FPartly cloudy.6 mph58%29.88 "Hg10 mi
4:53 AM81 °FPassing clouds.8 mph54%29.86 "Hg10 mi
3:53 AM82 °FPassing clouds.9 mph53%29.87 "Hg10 mi
2:53 AM83 °FPassing clouds.7 mph48%29.86 "Hg10 mi
1:53 AM85 °FPassing clouds.6 mph46%29.87 "Hg10 mi
12:53 AM85 °FPassing clouds.7 mph45%29.86 "Hg10 mi
11:53 PM
Mon, Aug 3
87 °FPassing clouds.7 mph40%29.85 "Hg10 mi
10:53 PM87 °FPassing clouds.7 mph40%29.86 "Hg10 mi
9:53 PM89 °FPassing clouds.8 mph36%29.85 "Hg10 mi
8:53 PM92 °FPassing clouds.9 mph33%29.83 "Hg10 mi
7:53 PM94 °FPassing clouds.12 mph31%29.82 "Hg10 mi
6:53 PM97 °FScattered clouds.9 mph26%29.82 "Hg10 mi
5:53 PM97 °FPartly sunny.13 mph26%29.82 "Hg10 mi
4:53 PM98 °FPartly sunny.8 mph25%29.83 "Hg10 mi
3:53 PM98 °FScattered clouds.6 mph24%29.85 "Hg10 mi
2:53 PM98 °FScattered clouds.5 mph25%29.86 "Hg10 mi
1:53 PM97 °FScattered clouds.6 mph24%29.88 "Hg10 mi
12:53 PM95 °FScattered clouds.No wind29%29.89 "Hg10 mi
11:53 AM93 °FBroken clouds.8 mph33%29.90 "Hg10 mi
10:53 AM91 °FPartly sunny.6 mph38%29.90 "Hg10 mi
9:53 AM88 °FPartly sunny.No wind40%29.90 "Hg10 mi
Weather by CustomWeather, © 2015

See weather overviewHow to use our weather pages